Location: Kawakawa
(35.3830°S, 174.0670°E)
Time: 07:23:12
(UTC+13:00)

Altair - Pass Details

Date: 11 December 2019
Orbit: 1502 x 1682 km, 47.2° (Epoch: 19 January)

Event Time Altitude Azimuth Distance (km) Brightness Sun altitude
Rises 15:00:27 0° 240° (WSW) 4,905 10.4 64.3°
Reaches altitude 10° 15:03:43 10° 235° (SW) 3,934 10.0 63.7°
Maximum altitude 15:13:41 56° 158° (SSE) 1,961 8.7 61.7°
Drops below altitude 10° 15:23:38 10° 81° (E) 3,942 9.5 59.8°
Sets 15:26:54 0° 76° (ENE) 4,915 9.9 59.2°
